Year,Month,Day,Hour,Minute,Value (Times are PST for temperature in C)
2009,04,24,00,00,7.00
2009,04,24,00,01,7.00
2009,04,24,00,02,7.00
2009,04,24,00,03,7.00
2009,04,24,00,04,7.00
2009,04,24,00,05,7.00
2009,04,24,00,06,7.00
2009,04,24,00,07,7.00
2009,04,24,00,08,7.00
2009,04,24,00,09,7.00
2009,04,24,00,10,7.00
2009,04,24,00,11,7.00
2009,04,24,00,12,7.00
2009,04,24,00,13,7.00
2009,04,24,00,14,7.10
2009,04,24,00,15,7.10
2009,04,24,00,16,7.10
2009,04,24,00,17,7.10
2009,04,24,00,18,7.10
2009,04,24,00,19,7.10
2009,04,24,00,20,7.10
2009,04,24,00,21,7.10
2009,04,24,00,22,7.10
2009,04,24,00,23,7.10
2009,04,24,00,24,7.10
2009,04,24,00,25,7.10
2009,04,24,00,26,7.00
2009,04,24,00,27,7.00
2009,04,24,00,28,7.00
2009,04,24,00,29,7.00
2009,04,24,00,30,7.00
2009,04,24,00,31,7.00
2009,04,24,00,32,7.00
2009,04,24,00,33,7.00
2009,04,24,00,34,7.00
2009,04,24,00,35,7.00
2009,04,24,00,36,7.00
2009,04,24,00,37,7.00
2009,04,24,00,38,7.00
2009,04,24,00,39,7.00
2009,04,24,00,40,7.00
2009,04,24,00,41,6.90
2009,04,24,00,42,6.90
2009,04,24,00,43,6.90
2009,04,24,00,44,6.90
2009,04,24,00,45,6.90
2009,04,24,00,46,6.90
2009,04,24,00,47,6.90
2009,04,24,00,48,6.90
2009,04,24,00,49,6.90
2009,04,24,00,50,6.80
2009,04,24,00,51,6.80
2009,04,24,00,52,6.80
2009,04,24,00,53,6.80
2009,04,24,00,54,6.80
2009,04,24,00,55,6.80
2009,04,24,00,56,6.80
2009,04,24,00,57,6.80
2009,04,24,00,58,6.80
2009,04,24,00,59,6.80
2009,04,24,01,00,6.80
2009,04,24,01,01,6.80
2009,04,24,01,02,6.80
2009,04,24,01,03,6.80
2009,04,24,01,04,6.80
2009,04,24,01,05,6.80
2009,04,24,01,06,6.80
2009,04,24,01,07,6.80
2009,04,24,01,08,6.80
2009,04,24,01,09,6.80
2009,04,24,01,10,6.80
2009,04,24,01,11,6.70
2009,04,24,01,12,6.70
2009,04,24,01,13,6.70
2009,04,24,01,14,6.70
2009,04,24,01,15,6.60
2009,04,24,01,16,6.60
2009,04,24,01,17,6.60
2009,04,24,01,18,6.60
2009,04,24,01,19,6.60
2009,04,24,01,20,6.60
2009,04,24,01,21,6.60
2009,04,24,01,22,6.60
2009,04,24,01,23,6.60
2009,04,24,01,24,6.60
2009,04,24,01,25,6.60
2009,04,24,01,26,6.60
2009,04,24,01,27,6.60
2009,04,24,01,28,6.60
2009,04,24,01,29,6.60
2009,04,24,01,30,6.60
2009,04,24,01,31,6.60
2009,04,24,01,32,6.60
2009,04,24,01,33,6.60
2009,04,24,01,34,6.60
2009,04,24,01,35,6.60
2009,04,24,01,36,6.50
2009,04,24,01,37,6.40
2009,04,24,01,38,6.40
2009,04,24,01,39,6.40
2009,04,24,01,40,6.40
2009,04,24,01,41,6.40
2009,04,24,01,42,6.40
2009,04,24,01,43,6.40
2009,04,24,01,44,6.40
2009,04,24,01,45,6.40
2009,04,24,01,46,6.40
2009,04,24,01,47,6.40
2009,04,24,01,48,6.40
2009,04,24,01,49,6.40
2009,04,24,01,50,6.40
2009,04,24,01,51,6.40
2009,04,24,01,52,6.40
2009,04,24,01,53,6.40
2009,04,24,01,54,6.40
2009,04,24,01,55,6.40
2009,04,24,01,56,6.40
2009,04,24,01,57,6.40
2009,04,24,01,58,6.40
2009,04,24,01,59,6.40
2009,04,24,02,00,6.30
2009,04,24,02,01,6.30
2009,04,24,02,02,6.20
2009,04,24,02,03,6.20
2009,04,24,02,04,6.20
2009,04,24,02,05,6.10
2009,04,24,02,06,6.00
2009,04,24,02,07,6.00
2009,04,24,02,08,5.90
2009,04,24,02,09,5.90
2009,04,24,02,10,5.80
2009,04,24,02,11,5.70
2009,04,24,02,12,5.70
2009,04,24,02,13,5.70
2009,04,24,02,14,5.70
2009,04,24,02,15,5.60
2009,04,24,02,16,5.50
2009,04,24,02,17,5.50
2009,04,24,02,18,5.50
2009,04,24,02,19,5.40
2009,04,24,02,20,5.40
2009,04,24,02,21,5.30
2009,04,24,02,22,5.30
2009,04,24,02,23,5.30
2009,04,24,02,24,5.30
2009,04,24,02,25,5.30
2009,04,24,02,26,5.20
2009,04,24,02,27,5.20
2009,04,24,02,28,5.10
2009,04,24,02,29,5.10
2009,04,24,02,30,5.10
2009,04,24,02,31,5.10
2009,04,24,02,32,5.00
2009,04,24,02,33,4.90
2009,04,24,02,34,4.90
2009,04,24,02,35,4.90
2009,04,24,02,36,4.90
2009,04,24,02,37,4.80
2009,04,24,02,38,4.80
2009,04,24,02,39,4.70
2009,04,24,02,40,4.70
2009,04,24,02,41,4.60
2009,04,24,02,42,4.60
2009,04,24,02,43,4.60
2009,04,24,02,44,4.60
2009,04,24,02,45,4.50
2009,04,24,02,46,4.50
2009,04,24,02,47,4.40
2009,04,24,02,48,4.40
2009,04,24,02,49,4.40
2009,04,24,02,50,4.30
2009,04,24,02,51,4.30
2009,04,24,02,52,4.30
2009,04,24,02,53,4.20
2009,04,24,02,54,4.20
2009,04,24,02,55,4.20
2009,04,24,02,56,4.20
2009,04,24,02,57,4.10
2009,04,24,02,58,4.10
2009,04,24,02,59,4.10
2009,04,24,03,00,4.00
2009,04,24,03,01,4.00
2009,04,24,03,02,4.00
2009,04,24,03,03,3.90
2009,04,24,03,04,3.90
2009,04,24,03,05,3.80
2009,04,24,03,06,3.80
2009,04,24,03,07,3.80
2009,04,24,03,08,3.80
2009,04,24,03,09,3.80
2009,04,24,03,10,3.80
2009,04,24,03,11,3.80
2009,04,24,03,12,3.80
2009,04,24,03,13,3.80
2009,04,24,03,14,3.80
2009,04,24,03,15,3.80
2009,04,24,03,16,3.80
2009,04,24,03,17,3.80
2009,04,24,03,18,3.80
2009,04,24,03,19,3.80
2009,04,24,03,20,3.80
2009,04,24,03,21,3.80
2009,04,24,03,22,3.80
2009,04,24,03,23,3.80
2009,04,24,03,24,3.70
2009,04,24,03,25,3.70
2009,04,24,03,26,3.70
2009,04,24,03,27,3.70
2009,04,24,03,28,3.70
2009,04,24,03,29,3.60
2009,04,24,03,30,3.60
2009,04,24,03,31,3.60
2009,04,24,03,32,3.60
2009,04,24,03,33,3.50
2009,04,24,03,34,3.50
2009,04,24,03,35,3.50
2009,04,24,03,36,3.40
2009,04,24,03,37,3.40
2009,04,24,03,38,3.40
2009,04,24,03,39,3.30
2009,04,24,03,40,3.30
2009,04,24,03,41,3.30
2009,04,24,03,42,3.30
2009,04,24,03,43,3.20
2009,04,24,03,44,3.20
2009,04,24,03,45,3.20
2009,04,24,03,46,3.10
2009,04,24,03,47,3.10
2009,04,24,03,48,3.10
2009,04,24,03,49,3.10
2009,04,24,03,50,3.10
2009,04,24,03,51,3.10
2009,04,24,03,52,3.10
2009,04,24,03,53,3.10
2009,04,24,03,54,3.00
2009,04,24,03,55,2.90
2009,04,24,03,56,2.90
2009,04,24,03,57,2.90
2009,04,24,03,58,2.90
2009,04,24,03,59,2.90
2009,04,24,04,00,2.80
2009,04,24,04,01,2.80
2009,04,24,04,02,2.70
2009,04,24,04,03,2.70
2009,04,24,04,04,2.70
2009,04,24,04,05,2.70
2009,04,24,04,06,2.70
2009,04,24,04,07,2.70
2009,04,24,04,08,2.60
2009,04,24,04,09,2.60
2009,04,24,04,10,2.60
2009,04,24,04,11,2.60
2009,04,24,04,12,2.50
2009,04,24,04,13,2.50
2009,04,24,04,14,2.50
2009,04,24,04,15,2.50
2009,04,24,04,16,2.40
2009,04,24,04,17,2.40
2009,04,24,04,18,2.40
2009,04,24,04,19,2.30
2009,04,24,04,20,2.30
2009,04,24,04,21,2.30
2009,04,24,04,22,2.30
2009,04,24,04,23,2.20
2009,04,24,04,24,2.20
2009,04,24,04,25,2.20
2009,04,24,04,26,2.20
2009,04,24,04,27,2.20
2009,04,24,04,28,2.20
2009,04,24,04,29,2.20
2009,04,24,04,30,2.10
2009,04,24,04,31,2.10
2009,04,24,04,32,2.10
2009,04,24,04,33,2.10
2009,04,24,04,34,2.10
2009,04,24,04,35,2.10
2009,04,24,04,36,2.10
2009,04,24,04,37,2.10
2009,04,24,04,38,2.00
2009,04,24,04,39,2.00
2009,04,24,04,40,2.00
2009,04,24,04,41,2.00
2009,04,24,04,42,2.00
2009,04,24,04,43,1.90
2009,04,24,04,44,1.90
2009,04,24,04,45,1.90
2009,04,24,04,46,1.90
2009,04,24,04,47,1.90
2009,04,24,04,48,1.90
2009,04,24,04,49,1.90
2009,04,24,04,50,1.80
2009,04,24,04,51,1.80
2009,04,24,04,52,1.80
2009,04,24,04,53,1.80
2009,04,24,04,54,1.80
2009,04,24,04,55,1.80
2009,04,24,04,56,1.80
2009,04,24,04,57,1.80
2009,04,24,04,58,1.80
2009,04,24,04,59,1.80
2009,04,24,05,00,1.80
2009,04,24,05,01,1.80
2009,04,24,05,02,1.80
2009,04,24,05,03,1.80
2009,04,24,05,04,1.80
2009,04,24,05,05,1.80
2009,04,24,05,06,1.80
2009,04,24,05,07,1.80
2009,04,24,05,08,1.80
2009,04,24,05,09,1.80
2009,04,24,05,10,1.80
2009,04,24,05,11,1.80
2009,04,24,05,12,1.80
2009,04,24,05,13,1.80
2009,04,24,05,14,1.80
2009,04,24,05,15,1.80
2009,04,24,05,16,1.80
2009,04,24,05,17,1.70
2009,04,24,05,18,1.70
2009,04,24,05,19,1.70
2009,04,24,05,20,1.70
2009,04,24,05,21,1.70
2009,04,24,05,22,1.70
2009,04,24,05,23,1.70
2009,04,24,05,24,1.70
2009,04,24,05,25,1.60
2009,04,24,05,26,1.60
2009,04,24,05,27,1.60
2009,04,24,05,28,1.60
2009,04,24,05,29,1.60
2009,04,24,05,30,1.60
2009,04,24,05,31,1.60
2009,04,24,05,32,1.60
2009,04,24,05,33,1.60
2009,04,24,05,34,1.60
2009,04,24,05,35,1.50
2009,04,24,05,36,1.50
2009,04,24,05,37,1.50
2009,04,24,05,38,1.50
2009,04,24,05,39,1.50
2009,04,24,05,40,1.40
2009,04,24,05,41,1.40
2009,04,24,05,42,1.40
2009,04,24,05,43,1.30
2009,04,24,05,44,1.30
2009,04,24,05,45,1.30
2009,04,24,05,46,1.30
2009,04,24,05,47,1.30
2009,04,24,05,48,1.20
2009,04,24,05,49,1.20
2009,04,24,05,50,1.20
2009,04,24,05,51,1.20
2009,04,24,05,52,1.20
2009,04,24,05,53,1.10
2009,04,24,05,54,1.10
2009,04,24,05,55,1.10
2009,04,24,05,56,1.10
2009,04,24,05,57,1.10
2009,04,24,05,58,1.10
2009,04,24,05,59,1.00
2009,04,24,06,00,1.00
2009,04,24,06,01,1.00
2009,04,24,06,02,1.00
2009,04,24,06,03,1.00
2009,04,24,06,04,1.00
2009,04,24,06,05,1.00
2009,04,24,06,06,1.00
2009,04,24,06,07,1.00
2009,04,24,06,08,1.00
2009,04,24,06,09,1.00
2009,04,24,06,10,1.00
2009,04,24,06,11,1.00
2009,04,24,06,12,1.00
2009,04,24,06,13,1.00
2009,04,24,06,14,1.00
2009,04,24,06,15,1.00
2009,04,24,06,16,1.00
2009,04,24,06,17,1.00
2009,04,24,06,18,1.00
2009,04,24,06,19,1.00
2009,04,24,06,20,1.00
2009,04,24,06,21,1.00
2009,04,24,06,22,1.00
2009,04,24,06,23,1.00
2009,04,24,06,24,1.00
2009,04,24,06,25,1.00
2009,04,24,06,26,1.00
2009,04,24,06,27,1.00
2009,04,24,06,28,1.00
2009,04,24,06,29,1.00
2009,04,24,06,30,1.00
2009,04,24,06,31,1.00
2009,04,24,06,32,1.00
2009,04,24,06,33,1.00
2009,04,24,06,34,1.00
2009,04,24,06,35,1.00
2009,04,24,06,36,1.00
2009,04,24,06,37,1.00
2009,04,24,06,38,1.10
2009,04,24,06,39,1.10
2009,04,24,06,40,1.10
2009,04,24,06,41,1.20
2009,04,24,06,42,1.20
2009,04,24,06,43,1.20
2009,04,24,06,44,1.30
2009,04,24,06,45,1.30
2009,04,24,06,46,1.40
2009,04,24,06,47,1.40
2009,04,24,06,48,1.50
2009,04,24,06,49,1.50
2009,04,24,06,50,1.60
2009,04,24,06,51,1.70
2009,04,24,06,52,1.70
2009,04,24,06,53,1.80
2009,04,24,06,54,1.80
2009,04,24,06,55,1.90
2009,04,24,06,56,1.90
2009,04,24,06,57,2.00
2009,04,24,06,58,2.00
2009,04,24,06,59,2.10
2009,04,24,07,00,2.20
2009,04,24,07,01,2.20
2009,04,24,07,02,2.20
2009,04,24,07,03,2.30
2009,04,24,07,04,2.30
2009,04,24,07,05,2.40
2009,04,24,07,06,2.40
2009,04,24,07,07,2.50
2009,04,24,07,08,2.50
2009,04,24,07,09,2.60
2009,04,24,07,10,2.60
2009,04,24,07,11,2.70
2009,04,24,07,12,2.70
2009,04,24,07,13,2.70
2009,04,24,07,14,2.80
2009,04,24,07,15,2.90
2009,04,24,07,16,2.90
2009,04,24,07,17,2.90
2009,04,24,07,18,3.10
2009,04,24,07,19,3.10
2009,04,24,07,20,3.20
2009,04,24,07,21,3.30
2009,04,24,07,22,3.40
2009,04,24,07,23,3.50
2009,04,24,07,24,3.60
2009,04,24,07,25,3.70
2009,04,24,07,26,3.80
2009,04,24,07,27,3.80
2009,04,24,07,28,3.90
2009,04,24,07,29,4.00
2009,04,24,07,30,4.00
2009,04,24,07,31,4.10
2009,04,24,07,32,4.20
2009,04,24,07,33,4.20
2009,04,24,07,34,4.30
2009,04,24,07,35,4.40
2009,04,24,07,36,4.50
2009,04,24,07,37,4.50
2009,04,24,07,38,4.60
2009,04,24,07,39,4.70
2009,04,24,07,40,4.80
2009,04,24,07,41,4.80
2009,04,24,07,42,4.90
2009,04,24,07,43,4.90
2009,04,24,07,44,4.90
2009,04,24,07,45,5.10
2009,04,24,07,46,5.10
2009,04,24,07,47,5.10
2009,04,24,07,48,5.10
2009,04,24,07,49,5.20
2009,04,24,07,50,5.20
2009,04,24,07,51,5.30
2009,04,24,07,52,5.30
2009,04,24,07,53,5.40
2009,04,24,07,54,5.40
2009,04,24,07,55,5.50
2009,04,24,07,56,5.50
2009,04,24,07,57,5.60
2009,04,24,07,58,5.70
2009,04,24,07,59,5.70
2009,04,24,08,00,5.80
2009,04,24,08,01,5.90
2009,04,24,08,02,6.00
2009,04,24,08,03,6.20
2009,04,24,08,04,6.30
2009,04,24,08,05,6.40
2009,04,24,08,06,6.50
2009,04,24,08,07,6.60
2009,04,24,08,08,6.70
2009,04,24,08,09,6.80
2009,04,24,08,10,6.80
2009,04,24,08,11,6.90
2009,04,24,08,12,7.00
2009,04,24,08,13,7.10
2009,04,24,08,14,7.20
2009,04,24,08,15,7.20
2009,04,24,08,16,7.30
2009,04,24,08,17,7.40
2009,04,24,08,18,7.50
2009,04,24,08,19,7.70
2009,04,24,08,20,7.80
2009,04,24,08,21,7.80
2009,04,24,08,22,7.90
2009,04,24,08,23,8.00
2009,04,24,08,24,8.10
2009,04,24,08,25,8.20
2009,04,24,08,26,8.40
2009,04,24,08,27,8.50
2009,04,24,08,28,8.60
2009,04,24,08,29,8.70
2009,04,24,08,30,8.80
2009,04,24,08,31,8.90
2009,04,24,08,32,9.00
2009,04,24,08,33,9.20
2009,04,24,08,34,9.30
2009,04,24,08,35,9.40
2009,04,24,08,36,9.40
2009,04,24,08,37,9.40
2009,04,24,08,38,9.40
2009,04,24,08,39,9.50
2009,04,24,08,40,9.50
2009,04,24,08,41,9.50
2009,04,24,08,42,9.50
2009,04,24,08,43,9.50
2009,04,24,08,44,9.40
2009,04,24,08,45,9.40
2009,04,24,08,46,9.40
2009,04,24,08,47,9.40
2009,04,24,08,48,9.50
2009,04,24,08,49,9.50
2009,04,24,08,50,9.50
2009,04,24,08,51,9.50
2009,04,24,08,52,9.60
2009,04,24,08,53,9.70
2009,04,24,08,54,9.70
2009,04,24,08,55,9.70
2009,04,24,08,56,9.80
2009,04,24,08,57,9.80
2009,04,24,08,58,9.90
2009,04,24,08,59,9.80
2009,04,24,09,00,9.70
2009,04,24,09,01,9.70
2009,04,24,09,02,9.70
2009,04,24,09,03,9.70
2009,04,24,09,04,9.70
2009,04,24,09,05,9.70
2009,04,24,09,06,9.70
2009,04,24,09,07,9.70
2009,04,24,09,08,9.70
2009,04,24,09,09,9.80
2009,04,24,09,10,9.80
2009,04,24,09,11,9.90
2009,04,24,09,12,10.00
2009,04,24,09,13,10.10
2009,04,24,09,14,10.10
2009,04,24,09,15,10.10
2009,04,24,09,16,10.10
2009,04,24,09,17,10.00
2009,04,24,09,18,9.90
2009,04,24,09,19,9.90
2009,04,24,09,20,10.10
2009,04,24,09,21,10.10
2009,04,24,09,22,10.10
2009,04,24,09,23,10.20
2009,04,24,09,24,10.40
2009,04,24,09,25,10.50
2009,04,24,09,26,10.60
2009,04,24,09,27,10.60
2009,04,24,09,28,10.60
2009,04,24,09,29,10.60
2009,04,24,09,30,10.60
2009,04,24,09,31,10.60
2009,04,24,09,32,10.60
2009,04,24,09,33,10.70
2009,04,24,09,34,10.60
2009,04,24,09,35,10.60
2009,04,24,09,36,10.60
2009,04,24,09,37,10.60
2009,04,24,09,38,10.50
2009,04,24,09,39,10.40
2009,04,24,09,40,10.50
2009,04,24,09,41,10.50
2009,04,24,09,42,10.40
2009,04,24,09,43,10.40
2009,04,24,09,44,10.60
2009,04,24,09,45,10.60
2009,04,24,09,46,10.60
2009,04,24,09,47,10.60
2009,04,24,09,48,10.60
2009,04,24,09,49,10.70
2009,04,24,09,50,10.80
2009,04,24,09,51,10.90
2009,04,24,09,52,10.80
2009,04,24,09,53,10.70
2009,04,24,09,54,10.60
2009,04,24,09,55,10.60
2009,04,24,09,56,10.70
2009,04,24,09,57,10.60
2009,04,24,09,58,10.70
2009,04,24,09,59,10.80
2009,04,24,10,00,10.90
2009,04,24,10,01,10.90
2009,04,24,10,02,10.90
2009,04,24,10,03,10.90
2009,04,24,10,04,10.90
2009,04,24,10,05,11.10
2009,04,24,10,06,11.20
2009,04,24,10,07,11.20
2009,04,24,10,08,11.40
2009,04,24,10,09,11.30
2009,04,24,10,10,11.10
2009,04,24,10,11,11.10
2009,04,24,10,12,11.10
2009,04,24,10,13,11.10
2009,04,24,10,14,11.20
2009,04,24,10,15,11.30
2009,04,24,10,16,11.30
2009,04,24,10,17,11.10
2009,04,24,10,18,10.90
2009,04,24,10,19,10.80
2009,04,24,10,20,10.80
2009,04,24,10,21,10.90
2009,04,24,10,22,10.90
2009,04,24,10,23,10.90
2009,04,24,10,24,11.00
2009,04,24,10,25,11.10
2009,04,24,10,26,11.20
2009,04,24,10,27,11.20
2009,04,24,10,28,11.20
2009,04,24,10,29,11.30
2009,04,24,10,30,11.40
2009,04,24,10,31,11.30
2009,04,24,10,32,11.10
2009,04,24,10,33,11.10
2009,04,24,10,34,11.10
2009,04,24,10,35,11.10
2009,04,24,10,36,11.20
2009,04,24,10,37,11.20
2009,04,24,10,38,11.30
2009,04,24,10,39,11.40
2009,04,24,10,40,11.30
2009,04,24,10,41,11.40
2009,04,24,10,42,11.40
2009,04,24,10,43,11.40
2009,04,24,10,44,11.30
2009,04,24,10,45,11.30
2009,04,24,10,46,11.30
2009,04,24,10,47,11.40
2009,04,24,10,48,11.40
2009,04,24,10,49,11.30
2009,04,24,10,50,11.20
2009,04,24,10,51,11.00
2009,04,24,10,52,10.90
2009,04,24,10,53,10.80
2009,04,24,10,54,10.70
2009,04,24,10,55,10.60
2009,04,24,10,56,10.50
2009,04,24,10,57,10.40
2009,04,24,10,58,10.40
2009,04,24,10,59,10.40
2009,04,24,11,00,10.40
2009,04,24,11,01,10.60
2009,04,24,11,02,10.60
2009,04,24,11,03,10.80
2009,04,24,11,04,10.90
2009,04,24,11,05,11.10
2009,04,24,11,06,11.10
2009,04,24,11,07,10.90
2009,04,24,11,08,10.70
2009,04,24,11,09,10.50
2009,04,24,11,10,10.50
2009,04,24,11,11,10.60
2009,04,24,11,12,10.60
2009,04,24,11,13,10.60
2009,04,24,11,14,10.70
2009,04,24,11,15,10.80
2009,04,24,11,16,10.90
2009,04,24,11,17,10.90
2009,04,24,11,18,11.10
2009,04,24,11,19,11.20
2009,04,24,11,20,11.20
2009,04,24,11,21,11.10
2009,04,24,11,22,10.90
2009,04,24,11,23,10.90
2009,04,24,11,24,10.70
2009,04,24,11,25,10.70
2009,04,24,11,26,10.90
2009,04,24,11,27,10.90
2009,04,24,11,28,10.80
2009,04,24,11,29,10.70
2009,04,24,11,30,10.60
2009,04,24,11,31,10.40
2009,04,24,11,32,10.40
2009,04,24,11,33,10.40
2009,04,24,11,34,10.50
2009,04,24,11,35,10.40
2009,04,24,11,36,10.30
2009,04,24,11,37,10.30
2009,04,24,11,38,10.30
2009,04,24,11,39,10.20
2009,04,24,11,40,10.20
2009,04,24,11,41,10.20
2009,04,24,11,42,10.10
2009,04,24,11,43,10.10
2009,04,24,11,44,10.20
2009,04,24,11,45,10.30
2009,04,24,11,46,10.50
2009,04,24,11,47,10.60
2009,04,24,11,48,10.70
2009,04,24,11,49,10.80
2009,04,24,11,50,10.90
2009,04,24,11,51,10.90
2009,04,24,11,52,10.90
2009,04,24,11,53,10.90
2009,04,24,11,54,11.00
2009,04,24,11,55,11.00
2009,04,24,11,56,11.00
2009,04,24,11,57,11.10
2009,04,24,11,58,11.10
2009,04,24,11,59,10.90
2009,04,24,12,00,10.90
2009,04,24,12,01,10.90
2009,04,24,12,02,10.80
2009,04,24,12,03,10.80
2009,04,24,12,04,10.80
2009,04,24,12,05,10.90
2009,04,24,12,06,11.10
2009,04,24,12,07,11.20
2009,04,24,12,08,11.40
2009,04,24,12,09,11.50
2009,04,24,12,10,11.60
2009,04,24,12,11,11.80
2009,04,24,12,12,11.80
2009,04,24,12,13,12.00
2009,04,24,12,14,12.10
2009,04,24,12,15,12.10
2009,04,24,12,16,12.20
2009,04,24,12,17,12.20
2009,04,24,12,18,12.00
2009,04,24,12,19,11.90
2009,04,24,12,20,11.80
2009,04,24,12,21,11.60
2009,04,24,12,22,11.40
2009,04,24,12,23,11.20
2009,04,24,12,24,11.20
2009,04,24,12,25,11.10
2009,04,24,12,26,11.20
2009,04,24,12,27,11.30
2009,04,24,12,28,11.40
2009,04,24,12,29,11.40
2009,04,24,12,30,11.30
2009,04,24,12,31,11.30
2009,04,24,12,32,11.40
2009,04,24,12,33,11.40
2009,04,24,12,34,11.50
2009,04,24,12,35,11.60
2009,04,24,12,36,11.60
2009,04,24,12,37,11.70
2009,04,24,12,38,11.60
2009,04,24,12,39,11.60
2009,04,24,12,40,11.60
2009,04,24,12,41,11.50
2009,04,24,12,42,11.60
2009,04,24,12,43,11.60
2009,04,24,12,44,11.60
2009,04,24,12,45,11.60
2009,04,24,12,46,11.50
2009,04,24,12,47,11.20
2009,04,24,12,48,11.00
2009,04,24,12,49,10.80
2009,04,24,12,50,10.70
2009,04,24,12,51,10.60
2009,04,24,12,52,10.70
2009,04,24,12,53,10.80
2009,04,24,12,54,10.90
2009,04,24,12,55,11.00
2009,04,24,12,56,11.10
2009,04,24,12,57,11.00
2009,04,24,12,58,10.90
2009,04,24,12,59,10.80
2009,04,24,13,00,10.80
2009,04,24,13,01,10.70
2009,04,24,13,02,10.60
2009,04,24,13,03,10.50
2009,04,24,13,04,10.60
2009,04,24,13,05,10.60
2009,04,24,13,06,10.80
2009,04,24,13,07,10.90
2009,04,24,13,08,11.00
2009,04,24,13,09,11.10
2009,04,24,13,10,11.20
2009,04,24,13,11,11.30
2009,04,24,13,12,11.40
2009,04,24,13,13,11.40
2009,04,24,13,14,11.40
2009,04,24,13,15,11.40
2009,04,24,13,16,11.40
2009,04,24,13,17,11.30
2009,04,24,13,18,11.20
2009,04,24,13,19,11.00
2009,04,24,13,20,10.90
2009,04,24,13,21,10.80
2009,04,24,13,22,10.90
2009,04,24,13,23,11.00
2009,04,24,13,24,11.10
2009,04,24,13,25,11.10
2009,04,24,13,26,11.20
2009,04,24,13,27,11.20
2009,04,24,13,28,11.00
2009,04,24,13,29,10.90
2009,04,24,13,30,10.70
2009,04,24,13,31,10.60
2009,04,24,13,32,10.50
2009,04,24,13,33,10.50
2009,04,24,13,34,10.60
2009,04,24,13,35,10.50
2009,04,24,13,36,10.40
2009,04,24,13,37,10.60
2009,04,24,13,38,10.70
2009,04,24,13,39,10.90
2009,04,24,13,40,10.70
2009,04,24,13,41,10.70
2009,04,24,13,42,10.60
2009,04,24,13,43,10.60
2009,04,24,13,44,10.40
2009,04,24,13,45,10.30
2009,04,24,13,46,10.20
2009,04,24,13,47,10.10
2009,04,24,13,48,10.20
2009,04,24,13,49,10.20
2009,04,24,13,50,10.10
2009,04,24,13,51,10.10
2009,04,24,13,52,10.10
2009,04,24,13,53,10.10
2009,04,24,13,54,10.10
2009,04,24,13,55,10.00
2009,04,24,13,56,9.90
2009,04,24,13,57,9.90
2009,04,24,13,58,9.90
2009,04,24,13,59,9.90
2009,04,24,14,00,10.00
2009,04,24,14,01,10.10
2009,04,24,14,02,10.30
2009,04,24,14,03,10.60
2009,04,24,14,04,10.80
2009,04,24,14,05,10.90
2009,04,24,14,06,10.90
2009,04,24,14,07,10.90
2009,04,24,14,08,10.70
2009,04,24,14,09,10.50
2009,04,24,14,10,10.40
2009,04,24,14,11,10.30
2009,04,24,14,12,10.30
2009,04,24,14,13,10.40
2009,04,24,14,14,10.30
2009,04,24,14,15,10.30
2009,04,24,14,16,10.40
2009,04,24,14,17,10.30
2009,04,24,14,18,10.40
2009,04,24,14,19,10.40
2009,04,24,14,20,10.40
2009,04,24,14,21,10.40
2009,04,24,14,22,10.60
2009,04,24,14,23,10.60
2009,04,24,14,24,10.60
2009,04,24,14,25,10.70
2009,04,24,14,26,10.80
2009,04,24,14,27,11.10
2009,04,24,14,28,11.20
2009,04,24,14,29,11.30
2009,04,24,14,30,11.40
2009,04,24,14,31,11.50
2009,04,24,14,32,11.70
2009,04,24,14,33,11.90
2009,04,24,14,34,12.20
2009,04,24,14,35,12.60
2009,04,24,14,36,12.90
2009,04,24,14,37,13.20
2009,04,24,14,38,13.40
2009,04,24,14,39,13.70
2009,04,24,14,40,13.90
2009,04,24,14,41,14.20
2009,04,24,14,42,14.50
2009,04,24,14,43,14.70
2009,04,24,14,44,14.90
2009,04,24,14,45,15.10
2009,04,24,14,46,15.20
2009,04,24,14,47,15.30
2009,04,24,14,48,15.30
2009,04,24,14,49,15.40
2009,04,24,14,50,15.50
2009,04,24,14,51,15.60
2009,04,24,14,52,15.70
2009,04,24,14,53,15.80
2009,04,24,14,54,15.80
2009,04,24,14,55,15.90
2009,04,24,14,56,15.90
2009,04,24,14,57,15.90
2009,04,24,14,58,15.80
2009,04,24,14,59,15.80
2009,04,24,15,00,15.80
2009,04,24,15,01,15.70
2009,04,24,15,02,15.60
2009,04,24,15,03,15.70
2009,04,24,15,04,15.70
2009,04,24,15,05,15.70
2009,04,24,15,06,15.70
2009,04,24,15,07,15.60
2009,04,24,15,08,15.70
2009,04,24,15,09,15.70
2009,04,24,15,10,15.80
2009,04,24,15,11,15.80
2009,04,24,15,12,15.80
2009,04,24,15,13,15.80
2009,04,24,15,14,15.80
2009,04,24,15,15,15.80
2009,04,24,15,16,15.80
2009,04,24,15,17,15.60
2009,04,24,15,18,15.60
2009,04,24,15,19,15.60
2009,04,24,15,20,15.70
2009,04,24,15,21,15.60
2009,04,24,15,22,15.50
2009,04,24,15,23,15.60
2009,04,24,15,24,15.70
2009,04,24,15,25,15.70
2009,04,24,15,26,15.70
2009,04,24,15,27,15.80
2009,04,24,15,28,15.80
2009,04,24,15,29,15.80
2009,04,24,15,30,15.80
2009,04,24,15,31,15.80
2009,04,24,15,32,15.80
2009,04,24,15,33,15.80
2009,04,24,15,34,15.90
2009,04,24,15,35,16.00
2009,04,24,15,36,16.10
2009,04,24,15,37,16.20
2009,04,24,15,38,16.30
2009,04,24,15,39,16.40
2009,04,24,15,40,16.40
2009,04,24,15,41,16.30
2009,04,24,15,42,16.20
2009,04,24,15,43,16.20
2009,04,24,15,44,16.20
2009,04,24,15,45,16.10
2009,04,24,15,46,16.00
2009,04,24,15,47,15.90
2009,04,24,15,48,15.90
2009,04,24,15,49,15.80
2009,04,24,15,50,15.80
2009,04,24,15,51,15.90
2009,04,24,15,52,15.90
2009,04,24,15,53,15.90
2009,04,24,15,54,15.90
2009,04,24,15,55,15.80
2009,04,24,15,56,15.80
2009,04,24,15,57,15.70
2009,04,24,15,58,15.70
2009,04,24,15,59,15.70
2009,04,24,16,00,15.70
2009,04,24,16,01,15.70
2009,04,24,16,02,15.70
2009,04,24,16,03,15.70
2009,04,24,16,04,15.60
2009,04,24,16,05,15.50
2009,04,24,16,06,15.40
2009,04,24,16,07,15.40
2009,04,24,16,08,15.50
2009,04,24,16,09,15.50
2009,04,24,16,10,15.50
2009,04,24,16,11,15.60
2009,04,24,16,12,15.60
2009,04,24,16,13,15.70
2009,04,24,16,14,15.80
2009,04,24,16,15,15.70
2009,04,24,16,16,15.70
2009,04,24,16,17,15.70
2009,04,24,16,18,15.70
2009,04,24,16,19,15.60
2009,04,24,16,20,15.60
2009,04,24,16,21,15.60
2009,04,24,16,22,15.60
2009,04,24,16,23,15.60
2009,04,24,16,24,15.70
2009,04,24,16,25,15.60
2009,04,24,16,26,15.50
2009,04,24,16,27,15.50
2009,04,24,16,28,15.40
2009,04,24,16,29,15.40
2009,04,24,16,30,15.30
2009,04,24,16,31,15.30
2009,04,24,16,32,15.30
2009,04,24,16,33,15.30
2009,04,24,16,34,15.30
2009,04,24,16,35,15.20
2009,04,24,16,36,15.20
2009,04,24,16,37,15.10
2009,04,24,16,38,15.10
2009,04,24,16,39,15.00
2009,04,24,16,40,15.00
2009,04,24,16,41,14.90
2009,04,24,16,42,15.00
2009,04,24,16,43,15.00
2009,04,24,16,44,15.00
2009,04,24,16,45,15.10
2009,04,24,16,46,15.10
2009,04,24,16,47,15.10
2009,04,24,16,48,15.20
2009,04,24,16,49,15.20
2009,04,24,16,50,15.30
2009,04,24,16,51,15.30
2009,04,24,16,52,15.30
2009,04,24,16,53,15.30
2009,04,24,16,54,15.30
2009,04,24,16,55,15.30
2009,04,24,16,56,15.30
2009,04,24,16,57,15.30
2009,04,24,16,58,15.30
2009,04,24,16,59,15.30
2009,04,24,17,00,15.30
2009,04,24,17,01,15.30
2009,04,24,17,02,15.30
2009,04,24,17,03,15.30
2009,04,24,17,04,15.30
2009,04,24,17,05,15.40
2009,04,24,17,06,15.50
2009,04,24,17,07,15.50
2009,04,24,17,08,15.50
2009,04,24,17,09,15.40
2009,04,24,17,10,15.40
2009,04,24,17,11,15.30
2009,04,24,17,12,15.20
2009,04,24,17,13,15.10
2009,04,24,17,14,15.10
2009,04,24,17,15,15.00
2009,04,24,17,16,15.00
2009,04,24,17,17,15.00
2009,04,24,17,18,15.00
2009,04,24,17,19,15.00
2009,04,24,17,20,15.10
2009,04,24,17,21,15.10
2009,04,24,17,22,15.20
2009,04,24,17,23,15.20
2009,04,24,17,24,15.20
2009,04,24,17,25,15.10
2009,04,24,17,26,15.10
2009,04,24,17,27,15.20
2009,04,24,17,28,15.20
2009,04,24,17,29,15.30
2009,04,24,17,30,15.40
2009,04,24,17,31,15.50
2009,04,24,17,32,15.60
2009,04,24,17,33,15.60
2009,04,24,17,34,15.40
2009,04,24,17,35,15.30
2009,04,24,17,36,15.10
2009,04,24,17,37,15.00
2009,04,24,17,38,14.80
2009,04,24,17,39,14.70
2009,04,24,17,40,14.60
2009,04,24,17,41,14.50
2009,04,24,17,42,14.50
2009,04,24,17,43,14.50